Omak, WA

5:12 AM PDT on August 17, 2017 (GMT -0700)
Omak

Weather History for KOMK - November, 2011

Change the Weather History Date:

Thursday, November 24, 2011

  Actual Average Record
Temperature  
Mean Temperature 32 °F 32 °F  
Max Temperature 40 °F 39 °F 70 °F (1933)
Min Temperature 24 °F 26 °F -6 °F (2010)
Degree Days  
Heating Degree Days 33 33  
Month to date heating degree days 818 669  
Since 1 July heating degree days 1491 1329  
Cooling Degree Days 0 0  
Month to date cooling degree days 0 0  
Year to date cooling degree days 424 665  
Moisture  
Dew Point 28 °F    
Average Humidity 74    
Maximum Humidity 92    
Minimum Humidity 56    
Precipitation  
Precipitation 0.05 in 0.06 in 0.43 in (1960)
Month to date precipitation 0.62 1.23  
Year to date precipitation 10.05 12.17  
Sea Level Pressure  
Sea Level Pressure 29.73 in    
Wind  
Wind Speed 6 mph (South)    
Max Wind Speed 15 mph    
Max Gust Speed 18 mph    
Visibility 10 miles    
Events Rain    
T = Trace of Precipitation, MM = Missing Value Source: NWS Daily Summary

Daily Weather History Graph

Daily Weather History Graph

Search for Another Location

Airport or City:

Trip Planner

Search our weather history database for the weather conditions in past years. The results will help you decide how hot, cold, wet, or windy it might be!

Date:

Astronomy

Nov. 24, 2011 Rise Set
Actual Time 7:18 AM PST 4:10 PM PST
Civil Twilight 6:43 AM PST 4:45 PM PST
Nautical Twilight 6:04 AM PST 5:24 PM PST
Astronomical Twilight 5:27 AM PST 6:01 PM PST
Moon 6:45 AM PST (11/24) 3:42 PM PST (11/24)
Length of Visible Light 10h 01m
Length of Day
8h 51m
Waning Crescent, 0% of the Moon is Illuminated
Nov 24
Waning Crescent
Nov 24
New
Dec 2
First Quarter
Dec 10
Full
Dec 17
Last Quarter

Hourly Weather History & Observations

Time (PST) Temp. Windchill Dew Point Humidity Pressure Visibility Wind Dir Wind Speed Gust Speed Precip Events Conditions
12:53 AM 33.1 °F 27.7 °F 24.1 °F 70% 29.76 in 10.0 mi North 5.8 mph - N/A   Clear
1:53 AM 32.0 °F - 21.9 °F 66% 29.79 in 10.0 mi Calm Calm - N/A   Clear
2:53 AM 28.0 °F - 19.9 °F 72% 29.81 in 10.0 mi Calm Calm - N/A   Clear
3:53 AM 25.0 °F - 19.9 °F 81% 29.82 in 10.0 mi Calm Calm - N/A   Clear
4:53 AM 27.0 °F - 21.0 °F 78% 29.83 in 10.0 mi Calm Calm - N/A   Clear
6:53 AM 27.0 °F 21.6 °F 21.0 °F 78% 29.82 in 10.0 mi SW 4.6 mph - N/A   Clear
7:53 AM 28.0 °F 24.2 °F 21.9 °F 78% 29.82 in 10.0 mi SW 3.5 mph - N/A   Clear
8:53 AM 30.0 °F - 24.1 °F 79% 29.81 in 10.0 mi Calm Calm - N/A   Clear
9:53 AM 32.0 °F 27.5 °F 24.1 °F 73% 29.83 in 10.0 mi SE 4.6 mph - N/A   Clear
10:53 AM 37.0 °F 30.4 °F 25.0 °F 62% 29.80 in 10.0 mi SSW 9.2 mph - N/A   Clear
11:53 AM 37.0 °F 31.6 °F 25.0 °F 62% 29.77 in 10.0 mi South 6.9 mph - N/A   Partly Cloudy
12:53 PM 37.9 °F 32.7 °F 26.1 °F 62% 29.74 in 10.0 mi SW 6.9 mph - N/A   Mostly Cloudy
1:53 PM 37.9 °F 32.7 °F 26.1 °F 62% 29.74 in 10.0 mi SSW 6.9 mph - N/A   Overcast
2:53 PM 39.0 °F 32.8 °F 27.0 °F 62% 29.72 in 10.0 mi South 9.2 mph - N/A   Overcast
3:24 PM 37.4 °F 31.4 °F 30.2 °F 75% 29.68 in 10.0 mi South 8.1 mph - 0.00 in Rain Light Rain
4:53 PM 35.1 °F 27.9 °F 33.1 °F 92% 29.69 in 10.0 mi South 9.2 mph - 0.02 in Rain Light Rain
5:22 PM 33.8 °F 29.6 °F 33.8 °F 100% 29.64 in 10.0 mi SSW 4.6 mph - 0.00 in Rain Light Rain
5:40 PM 35.6 °F 29.2 °F 33.8 °F 93% 29.63 in 10.0 mi South 8.1 mph - 0.00 in Rain Light Rain
5:53 PM 36.0 °F 29.6 °F 34.0 °F 93% 29.68 in 10.0 mi South 8.1 mph - 0.00 in   Overcast
6:53 PM 37.0 °F 29.8 °F 34.0 °F 89% 29.67 in 10.0 mi South 10.4 mph - 0.02 in Rain Light Rain
7:53 PM 37.0 °F 29.8 °F 34.0 °F 89% 29.66 in 10.0 mi South 10.4 mph - 0.00 in   Overcast
8:53 PM 37.0 °F 31.6 °F 34.0 °F 89% 29.66 in 10.0 mi South 6.9 mph - N/A   Overcast
9:53 PM 37.9 °F 32.7 °F 34.0 °F 86% 29.66 in 10.0 mi South 6.9 mph - N/A   Overcast
10:53 PM 39.9 °F 33.9 °F 33.1 °F 77% 29.66 in 10.0 mi SSE 9.2 mph - N/A   Overcast
11:45 PM 37.4 °F 30.8 °F 32.0 °F 81% 29.65 in 10.0 mi South 9.2 mph - N/A   Scattered Clouds